Regional Weather Roundup
Issued by NWS

Home | Current Version | Previous Version | Text Only | Print | Product List | Glossary Off
Versions: 1 2 3 4 5 6 7 8 9 10 11 12 13 14 15 16 17 18 19 20 21 22 23 24 25 26 27 28 29 30 31 32 33 34 35 36 37 38 39 40 41 42 43 44 45 46 47 48 49 50

000
ASUS43 KLSX 280307
RWRMO

WEATHER SUMMARY FOR MISSOURI
NATIONAL WEATHER SERVICE SPRINGFIELD MO
1000 PM CDT WED JUL 27 2016

NOTE: "FAIR" INDICATES FEW OR NO CLOUDS BELOW 12,000 FEET WITH NO
       SIGNIFICANT WEATHER AND/OR OBSTRUCTIONS TO VISIBILITY.
       CURRENT SKY AND/OR WEATHER CONDITIONS ARE NOT AVAILABLE FOR
       CHILLICOTHE AND FARMINGTON.

MOZ001>031-035>038-043-044-053-054-280400-
...NORTHERN AND WESTERN MISSOURI...

CITY           SKY/WX    TMP DP  RH WIND       PRES   REMARKS
KANSAS CTY INT MOCLDY    79  71  76 NE5       29.95R
KANSAS C DTWN  PTCLDY    82  71  69 NE5       29.93R
LEE`S SUMMIT   CLEAR     81  72  74 N8        29.95R
ST JOSEPH      PTCLDY    77  73  87 N3        29.94R
CHILLICOTHE      N/A     76  73  91 CALM      29.95R
KIRKSVILLE     PTCLDY    76  70  82 N6        29.95R

$$
MOZ066>068-077>081-088>096-101>105-280400-
...SOUTHWEST MISSOURI...

CITY           SKY/WX    TMP DP  RH WIND       PRES   REMARKS
SPRINGFIELD    CLOUDY    75  71  87 W5        29.95R
JOPLIN         CLEAR     75  71  87 S6        29.95R
BRANSON        LGT RAIN  73  73 100 CALM      29.96S

$$
MOZ032>034-039>042-045>050-055>058-069>072-280400-
...CENTRAL MISSOURI...

CITY           SKY/WX    TMP DP  RH WIND       PRES   REMARKS
COLUMBIA       PTCLDY    79  76  90 N6        29.94R
JEFFERSON CITY MOCLDY    81  75  82 CALM      29.91R
ROLLA          PTCLDY    74  71  91 S7        29.94R
SEDALIA        CLEAR     79  74  84 N3        29.94R
WHITEMAN AFB   PTCLDY    78  76  92 N2        29.92R
OSAGE BEACH    MOCLDY    80  75  84 S5        29.94R

$$
MOZ051-052-059>065-280400-
...EAST CENTRAL MISSOURI...

CITY           SKY/WX    TMP DP  RH WIND       PRES   REMARKS
ST LOUIS INTL  CLOUDY    84  73  69 S8        29.93R HX  90
SPIRIT OF STL  CLOUDY    79  75  87 CALM      29.92R
ST CHARLES     PTCLDY    80  77  90 CALM      29.91R

$$
MOZ072>076-082>087-097>100-106>115-280400-
...SOUTH CENTRAL AND SOUTHEAST MISSOURI...

CITY           SKY/WX    TMP DP  RH WIND       PRES   REMARKS
CAPE GIRARDEAU CLOUDY    75  72  90 CALM      29.95R
FARMINGTON     CLOUDY    78  74  87 S7        29.95S
POPLAR BLUFF   LGT RAIN  75  73  93 N3        29.94R
WEST PLAINS    CLOUDY    73  70  90 CALM      29.98R

$$



USA.gov is the U.S. government's official web portal to all federal, state and local government web resources and services.